GFSGBSN_con_3kmhel_168.txt.gz
Helicity
156 166 160 151 140 132 129 134 138 139 138 141 146 145 144 121 112 91 73 69 64 62 65 67 73 72 41 102 88 31 91 30 27 41 41 48 65 57 62 64 92 93 81 45 50 39 39
158 166 162 147 140 130 126 121 140 146 153 158 153 142 144 155 148 149 140 117 104 97 85 75 76 80 60 60 39 14 43 43 22 47 53 45 52 58 86 120 117 76 101 88 63 76 64
166 156 154 161 148 127 121 130 134 143 149 147 150 157 159 173 168 173 163 158 143 133 113 97 81 82 100 153 85 76 42 35 23 43 43 26 37 63 94 95 90 50 100 101 74 57 47
155 145 140 142 137 135 137 121 117 121 127 134 131 140 151 148 149 140 132 126 112 106 103 92 100 82 130 60 23 39 30 45 53 50 49 34 56 58 64 66 56 51 72 72 68 29 25
151 141 125 121 128 134 132 136 123 112 117 125 128 141 138 134 131 132 124 114 98 80 71 70 70 55 54 43 39 33 10 25 43 49 30 13 41 54 71 77 89 81 105 46 27 22 3
133 131 131 127 111 112 112 118 133 127 122 127 125 125 135 139 141 128 119 90 88 101 69 71 88 177 87 66 -13 8 18 26 67 87 81 103 104 119 91 121 200 83 60 53 57 -14 42
113 129 129 120 115 101 109 113 118 116 113 128 141 129 123 135 142 148 152 94 87 69 64 218 173 209 238 119 69 46 64 68 54 69 99 83 88 162 88 85 52 44 65 59 56 48 17
128 115 111 111 120 118 116 113 119 132 126 123 135 134 128 120 129 128 131 165 147 201 165 99 71 104 116 53 114 123 81 95 86 82 55 79 133 79 36 34 45 57 68 77 55 28 54
144 137 137 129 129 133 126 116 134 134 129 119 121 117 122 124 133 118 107 109 161 211 163 97 81 103 85 69 85 90 93 84 152 88 86 106 87 34 24 29 29 69 72 92 63 35 37
200 182 164 154 137 134 129 129 121 122 120 122 127 123 104 95 118 70 73 49 70 121 173 85 63 85 48 53 85 75 56 97 99 108 89 109 60 60 66 53 62 121 29 22 24 80 157
165 146 146 138 129 120 117 132 131 122 102 95 86 80 74 65 214 208 168 110 82 60 238 161 167 136 139 145 62 9 -19 49 31 16 70 42 77 89 70 61 52 96 63 50 102 148 145
148 139 131 124 119 105 94 88 102 112 111 105 97 88 85 81 92 49 84 62 68 248 329 327 182 209 260 123 32 124 157 1 -17 38 37 -14 6 35 41 22 35 90 110 92 81 170 203
149 128 115 107 99 92 90 93 100 112 118 117 117 111 98 72 93 47 57 118 281 432 211 224 113 135 68 94 86 84 163 128 150 165 140 51 47 31 33 66 94 124 198 319 302 319 336
133 117 92 92 88 96 99 86 95 111 123 130 127 128 125 95 63 62 74 173 371 292 135 177 111 47 35 34 43 20 -22 16 78 14 95 77 123 10 70 82 71 141 181 332 373 285 221
80 75 71 78 90 102 108 102 109 134 148 154 136 117 108 125 75 95 135 287 386 169 189 12 90 242 183 135 85 65 53 38 6 56 37 123 96 19 -2 88 64 39 162 150 143 121 195
51 47 56 71 87 95 104 108 120 143 183 176 111 147 95 84 89 127 189 208 213 77 135 95 168 216 315 168 115 81 57 48 57 13 232 128 121 18 24 155 131 146 111 134 371 458 376
68 63 68 75 82 91 95 102 104 130 171 188 193 227 134 69 134 214 264 218 95 48 179 105 151 257 236 203 223 255 92 119 220 270 165 126 170 89 131 140 83 173 132 232 162 196 367
71 83 86 101 118 117 109 100 100 103 165 170 254 265 92 117 224 318 331 228 142 106 125 189 107 17 151 252 227 276 214 123 177 145 139 164 144 142 86 129 177 91 120 131 294 392 278
83 97 97 90 85 100 97 109 105 98 174 343 295 225 160 210 188 251 173 87 62 71 76 75 97 119 221 205 129 150 112 4 77 108 173 136 177 165 109 143 165 185 113 258 175 234 143
59 64 47 50 53 64 61 44 63 67 127 334 292 229 140 210 155 123 94 75 49 40 68 83 49 118 -18 -26 113 102 128 49 21 10 -10 29 19 113 103 113 58 83 146 80 51 54 52
61 54 44 55 52 51 47 50 57 105 96 121 167 156 142 149 83 76 115 113 84 69 95 232 112 50 41 24 24 7 61 50 150 10 2 53 45 15 81 87 64 61 57 40 64 60 96
63 65 64 62 59 65 52 49 69 65 130 180 193 189 168 213 126 127 124 139 142 158 181 93 115 167 194 100 113 70 61 29 63 226 123 -15 -72 -84 -125 45 94 213 188 113 31 -44 52
68 67 70 66 68 62 58 57 55 73 139 184 132 98 153 167 166 146 141 173 188 155 163 123 143 90 167 175 80 66 79 99 10 -4 86 51 39 7 -36 42 116 99 99 48 138 71 75
79 78 73 71 74 69 66 70 67 71 103 140 117 104 129 99 85 93 102 101 94 106 102 122 100 111 114 72 43 25 20 8 25 57 34 90 59 68 85 -9 -22 -26 -9 67 94 148 202
75 86 87 81 75 74 78 75 77 92 82 100 92 116 163 114 83 64 71 47 24 20 26 19 50 59 76 56 34 15 7 -11 22 22 40 62 57 154 138 -10 43 45 -13 45 69 90 75
38 79 87 86 89 83 82 74 82 98 83 76 90 67 102 83 64 62 74 76 63 55 65 48 14 45 154 88 59 4 29 131 129 120 13 64 121 159 240 166 75 -5 -21 1 88 80 -15
24 61 76 90 83 99 85 78 81 86 71 87 100 79 85 109 88 70 82 65 13 78 82 58 116 144 72 63 59 65 28 63 85 126 92 113 78 56 119 109 107 27 13 52 102 38 162
35 49 33 22 60 97 91 56 73 93 74 95 70 96 92 84 73 105 82 114 119 98 57 61 43 29 72 77 65 29 43 52 92 66 91 94 23 -20 105 64 52 51 35 39 59 66 43
43 58 34 84 60 106 79 29 67 87 76 82 108 74 65 83 86 126 116 95 78 77 60 34 14 25 20 25 37 50 52 38 94 38 63 70 59 17 46 62 105 172 49 -6 7 16 52

GFSGBSN_con_3kmhel_174.txt.gz
Helicity
141 138 138 129 122 109 129 142 151 137 131 135 139 146 128 124 133 120 110 92 81 74 67 65 65 68 63 100 132 115 65 40 53 97 76 93 99 99 129 120 101 80 56 72 88 58 36
160 154 153 144 137 147 163 164 154 151 153 155 157 159 160 155 147 133 119 106 93 83 76 67 74 79 33 103 102 62 33 64 66 124 133 113 130 124 136 117 123 112 51 41 28 41 27
175 173 166 179 191 173 172 155 164 160 159 149 143 146 148 144 128 116 105 97 80 68 69 71 70 60 77 150 128 84 88 115 133 146 134 88 118 127 157 141 98 113 79 42 59 67 100
223 239 222 236 225 215 210 179 174 171 165 152 137 132 135 134 124 110 97 86 76 71 76 81 88 64 92 91 86 64 120 52 42 40 91 18 66 108 164 153 130 106 88 125 165 104 78
355 337 278 266 242 244 212 183 167 157 144 141 143 131 117 116 114 104 96 80 62 69 67 79 99 100 69 68 59 65 84 53 86 75 63 42 120 195 221 222 147 184 196 161 122 62 84
369 377 376 297 301 258 203 193 173 158 146 144 138 116 108 101 102 107 95 71 85 122 116 113 145 159 115 115 101 105 114 105 114 170 202 164 209 260 273 295 304 274 217 171 127 101 86
437 420 422 404 286 233 189 184 163 156 143 132 120 115 113 114 128 133 146 130 161 162 183 191 163 197 184 182 120 98 192 194 148 189 230 209 281 388 275 230 183 205 183 132 132 123 118
473 370 297 286 356 216 150 144 130 121 101 103 109 104 95 93 100 123 113 149 136 131 121 109 96 129 121 118 147 72 137 223 225 187 193 218 201 255 226 193 174 156 155 131 92 98 113
315 263 294 217 222 223 150 124 113 102 83 85 79 73 78 86 114 134 132 165 162 158 105 36 94 169 184 128 241 165 175 294 296 309 271 202 292 83 70 173 207 181 198 156 118 81 63
255 236 181 138 123 139 159 192 187 68 72 66 62 68 67 89 138 153 194 241 142 78 128 100 39 74 101 120 119 128 132 188 323 271 272 181 148 122 135 175 190 142 166 100 82 113 128
201 144 91 59 36 46 56 77 123 145 66 61 63 74 75 79 140 158 154 146 88 116 302 122 90 66 63 63 126 104 126 143 179 339 398 244 370 236 233 199 211 175 143 107 76 82 116
97 73 77 101 129 133 96 77 63 62 93 107 98 93 105 97 68 147 141 96 140 261 381 286 150 135 215 155 155 149 111 147 142 202 211 147 189 317 297 193 199 213 170 158 123 129 234
121 188 197 185 197 179 138 133 120 100 104 97 76 94 113 99 190 153 101 163 259 371 282 200 366 370 399 259 299 254 216 231 272 391 379 148 72 30 124 238 149 263 277 364 347 401 459
190 168 137 140 136 143 146 118 82 74 93 87 99 111 108 82 129 130 156 291 329 271 269 341 284 208 281 230 198 157 147 169 129 153 230 308 394 239 245 218 266 240 263 500 632 511 368
116 125 144 153 148 152 155 141 122 95 93 87 147 172 148 83 99 142 207 405 341 322 259 281 236 209 226 274 311 310 329 339 202 65 162 312 345 44 131 138 135 224 403 300 259 169 266
232 237 195 168 185 204 185 166 121 99 103 140 184 148 105 81 106 188 242 248 291 184 212 241 263 265 318 284 246 391 364 376 442 367 174 156 279 139 31 81 52 180 207 296 344 491 380
368 265 204 209 210 219 154 132 104 85 99 162 208 165 80 100 132 209 260 252 147 41 148 187 180 183 143 164 176 146 239 261 293 283 246 213 256 253 174 99 175 174 144 154 289 386 486
101 65 77 79 101 139 163 141 95 78 137 197 222 214 95 106 270 277 182 223 130 72 110 85 139 139 131 112 118 114 97 124 131 63 234 128 99 132 129 40 122 96 132 149 136 148 200
58 62 55 36 38 56 88 112 89 58 155 274 215 245 170 111 257 240 245 197 162 106 126 167 170 142 152 222 178 175 174 144 143 -4 -9 -33 70 171 202 3 238 189 68 93 125 272 153
9 23 35 35 45 60 57 67 60 37 137 278 261 213 247 229 246 266 240 224 195 120 80 61 111 128 168 73 54 114 178 104 50 17 -71 -58 -133 48 59 61 64 117 84 123 35 14 192
30 42 41 66 76 84 83 69 77 68 124 282 281 275 266 275 266 255 264 226 169 178 170 119 64 146 228 135 98 114 33 27 33 25 27 -43 -42 -72 52 137 128 33 48 40 -91 -80 -42
33 42 47 67 74 81 106 108 106 101 158 303 337 333 361 311 226 153 129 112 71 69 111 67 30 75 341 248 231 154 55 47 14 14 -2 -39 -74 -83 -93 40 183 111 85 19 -64 -72 -133
37 33 44 52 59 62 63 69 89 87 171 322 339 273 247 175 185 168 134 101 52 43 53 53 108 75 162 183 26 -44 35 55 23 31 0 -20 -24 -35 -91 -28 -51 59 63 60 29 -46 -7
21 36 40 49 59 64 66 66 75 130 186 248 249 277 242 240 120 73 80 79 47 79 80 69 78 111 44 58 60 46 25 21 39 54 75 37 2 14 -11 -5 -83 -10 -7 -7 -26 -55 -36
21 32 46 55 60 73 69 71 85 111 133 231 180 188 155 171 131 126 95 94 86 85 79 -1 -29 -1 67 58 86 83 65 71 54 34 46 68 108 111 80 45 58 47 40 32 -52 -10 214
-1 0 30 58 72 79 95 80 94 114 101 177 177 191 189 153 133 113 117 115 127 86 85 64 50 61 94 82 86 61 25 24 76 80 85 93 117 173 149 107 78 103 174 156 40 47 235
5 11 28 21 41 82 99 113 111 101 96 183 158 142 171 144 79 206 114 124 95 103 83 79 80 108 95 114 127 103 112 85 97 80 75 89 103 82 102 179 158 109 31 68 87 60 135
10 25 37 18 41 32 84 120 131 109 84 174 143 131 151 98 71 42 123 114 119 112 115 99 142 126 129 117 130 73 81 51 71 47 11 51 57 73 22 56 43 36 32 -19 23 12 0
25 29 20 25 53 43 57 115 112 94 97 156 136 125 130 64 97 89 108 103 116 135 136 127 102 88 100 109 72 61 91 75 58 47 27 5 8 14 35 32 45 40 -37 -86 -86 -58 -63

GFSGBSN_con_3kmhel_177.txt.gz
Helicity
155 146 145 145 139 140 131 123 129 126 119 122 111 115 129 131 127 145 133 125 120 110 105 98 93 85 86 119 128 136 134 84 40 97 94 98 95 105 150 135 141 126 102 101 122 103 61
188 178 167 161 160 163 151 141 151 165 135 150 154 150 158 192 164 160 141 128 120 111 110 99 99 88 73 109 72 59 73 89 99 110 125 143 155 170 129 138 151 158 106 76 41 47 75
213 204 198 198 178 184 183 175 202 205 199 180 181 161 180 191 162 142 130 101 87 88 90 89 82 48 74 114 97 97 71 80 116 156 119 134 185 183 226 207 155 118 107 62 65 73 102
255 216 234 224 206 219 216 237 255 256 236 207 197 173 167 160 149 123 88 65 69 75 85 78 71 45 70 72 72 51 99 56 71 62 43 39 112 145 193 184 168 121 99 149 132 90 75
281 262 258 261 251 247 271 290 283 284 234 213 195 169 156 139 115 96 87 75 81 86 75 79 79 77 47 75 85 93 88 92 89 81 79 64 157 196 269 240 185 195 202 216 171 99 94
292 338 321 281 322 345 327 310 304 294 239 232 199 177 144 123 100 105 110 97 103 124 109 118 173 131 99 105 93 89 85 122 134 175 180 169 226 307 380 433 319 299 252 248 229 142 134
292 306 337 324 379 397 473 426 373 319 269 213 186 152 128 106 126 157 175 144 141 132 161 149 116 165 124 132 144 133 173 179 161 182 205 162 226 382 354 289 280 266 275 232 281 198 139
332 354 452 451 506 548 559 537 454 364 263 208 177 148 131 135 151 169 175 174 188 148 122 67 62 130 74 143 144 72 217 245 213 198 177 205 214 252 233 225 237 192 177 163 126 157 146
393 590 542 560 598 651 539 582 505 357 278 248 204 154 138 151 171 204 180 175 158 98 87 33 121 186 165 154 220 118 202 267 329 273 231 203 273 115 145 192 213 177 224 151 195 180 139
422 582 685 888 897 597 524 505 448 386 284 276 255 149 138 132 209 209 213 191 150 58 144 69 53 82 109 146 168 175 127 209 337 241 280 143 67 68 110 186 180 141 172 123 132 174 218
831 1267 1328 1008 596 421 294 247 281 288 350 271 250 197 126 148 196 231 185 166 114 122 351 188 181 100 144 186 247 195 25 97 190 267 306 327 253 132 108 125 195 173 127 116 148 218 235
334 287 271 264 235 247 275 306 233 222 217 253 292 311 203 216 216 184 160 148 186 427 458 275 253 280 301 210 213 181 175 120 130 178 170 126 205 238 226 177 177 165 179 240 237 275 374
321 341 343 334 252 170 127 97 79 76 105 112 153 191 295 284 316 214 154 215 492 572 373 376 387 327 341 280 241 205 188 162 161 196 188 168 132 122 129 162 113 197 250 394 419 608 702
144 99 153 127 110 142 120 127 133 127 106 91 62 92 187 201 216 126 209 265 561 468 369 240 192 190 199 245 199 226 225 207 141 214 214 219 194 147 142 217 237 280 299 458 615 592 456
110 133 147 211 245 262 248 213 175 165 132 105 159 200 197 200 229 233 366 332 289 245 248 274 194 178 174 228 275 256 280 362 371 418 405 387 344 167 140 217 201 288 359 336 326 296 351
222 204 236 246 254 255 210 176 166 165 176 212 306 315 245 141 158 265 408 255 293 276 272 207 178 177 203 257 253 271 242 276 324 351 339 310 321 211 163 162 161 253 258 366 440 475 451
127 122 150 148 162 153 151 137 148 161 185 197 256 300 176 128 188 286 413 362 259 165 183 223 208 218 208 200 184 185 231 205 172 217 139 219 276 328 332 236 282 193 256 284 328 369 579
604 355 238 271 235 207 190 160 121 102 144 202 322 308 151 133 344 321 282 195 137 133 167 132 117 128 129 118 142 158 162 157 107 52 98 -24 57 148 203 349 199 58 252 135 353 315 334
289 307 254 219 212 214 242 228 123 112 167 327 388 348 178 189 285 290 224 133 135 146 161 154 149 132 180 180 196 122 139 175 175 137 82 56 75 24 128 1 22 6 103 59 -89 21 78
47 90 124 65 72 95 143 199 179 77 163 324 377 396 280 186 225 223 225 173 160 115 167 187 169 221 211 173 131 180 174 98 78 67 35 34 60 69 -2 12 11 -13 50 -58 -58 -45 -49
1 23 56 68 62 41 50 91 153 109 161 312 335 345 310 282 213 244 194 166 143 196 192 188 220 148 163 172 127 158 191 168 153 105 64 84 89 52 33 15 -7 -11 -46 -7 -61 -29 13
36 25 34 55 47 57 52 50 49 85 110 296 310 292 310 248 246 237 226 209 208 244 219 199 188 190 192 173 118 107 239 190 127 109 121 123 115 82 74 13 -12 -28 -5 -61 -10 4 -0
15 30 29 32 53 55 60 53 64 63 168 241 266 278 228 205 268 215 197 108 129 142 137 85 107 132 152 133 120 258 164 141 117 122 99 132 79 55 68 -20 -39 -1 -51 6 7 25 -12
12 13 36 40 49 52 51 59 66 66 163 293 337 360 325 275 201 195 149 135 121 109 123 60 63 91 63 28 38 53 21 61 52 54 144 121 134 117 89 28 30 -107 10 41 53 82 100
12 12 19 42 48 64 62 69 70 76 143 310 310 335 273 245 163 151 142 145 88 85 79 71 68 4 87 87 75 92 103 109 84 78 80 100 182 170 139 154 92 23 22 67 138 113 185
38 37 23 25 49 63 76 73 81 92 120 235 164 203 241 264 195 184 150 114 136 130 99 72 87 63 123 130 124 107 83 98 99 103 36 71 47 198 269 205 141 119 63 77 76 57 122
-14 -5 37 39 44 63 73 87 95 114 115 203 181 158 149 160 69 93 143 117 122 145 125 126 116 110 100 133 141 117 93 83 93 105 104 90 91 129 142 185 137 110 92 61 28 22 141
28 2 14 32 34 62 76 86 114 115 111 209 184 142 184 153 137 117 136 158 173 158 139 113 156 109 137 126 117 101 94 97 110 79 72 59 52 57 82 54 72 82 126 78 77 45 22
40 24 14 48 47 50 63 87 115 112 145 186 211 153 128 82 107 89 64 143 160 73 66 101 96 69 102 143 119 112 132 109 73 97 65 88 98 67 80 49 -0 -25 -33 97 -1 38 14

GFSGBSN_con_3kmhel_180.txt.gz
Helicity
190 184 160 166 159 156 146 141 137 130 133 129 126 122 114 114 105 96 101 116 127 131 131 107 94 82 95 131 95 137 146 143 87 38 55 114 123 129 161 142 148 174 152 125 130 118 103
202 203 192 182 173 166 154 152 154 148 145 142 150 160 147 141 143 123 108 106 129 124 119 116 110 89 111 148 72 98 122 115 125 123 93 113 128 133 142 170 160 149 116 98 75 69 110
238 223 217 201 193 178 170 176 178 175 163 177 195 193 181 167 151 135 120 113 125 129 132 118 94 70 102 88 116 118 84 76 85 92 83 129 168 175 219 174 155 128 96 55 108 118 107
268 257 247 226 219 212 200 201 199 202 200 218 239 233 222 193 170 151 134 148 118 142 130 104 77 45 63 64 85 64 95 69 76 87 107 125 183 205 208 185 157 144 95 151 142 126 69
289 268 279 268 246 230 218 224 223 225 246 279 279 256 233 200 181 159 160 151 101 107 97 104 81 71 42 71 72 67 77 71 74 77 74 85 172 190 252 208 173 213 195 223 223 114 95
234 302 284 306 291 261 248 242 256 283 314 362 323 294 243 208 179 175 173 128 145 136 140 121 147 105 70 98 91 109 56 58 130 143 139 133 176 260 279 377 266 218 218 204 159 75 125
363 220 314 316 327 295 317 286 326 328 396 416 365 322 253 211 197 187 220 191 197 176 213 173 108 120 145 133 136 101 126 147 168 199 158 125 206 323 326 292 224 239 211 167 192 99 128
419 350 200 350 349 348 351 347 421 433 461 446 403 353 281 252 236 238 240 232 229 192 119 77 99 138 106 172 184 114 171 179 206 220 225 236 240 188 189 175 174 164 151 116 99 55 70
269 364 344 331 340 407 396 405 494 515 542 509 451 381 331 328 320 316 242 228 183 148 146 92 110 162 136 147 180 85 167 212 270 272 248 208 274 98 112 135 115 142 170 132 138 97 90
198 259 297 194 407 417 464 475 543 676 684 625 519 497 478 375 422 337 321 248 191 127 221 125 121 167 178 221 214 182 154 247 351 211 313 173 162 131 133 210 171 127 86 78 80 91 143
75 162 182 202 379 378 440 603 770 1005 859 646 617 562 454 439 460 480 358 272 194 271 248 168 199 102 146 189 259 291 102 211 258 253 282 273 203 176 164 101 105 116 117 118 105 105 120
162 54 224 265 354 457 919 1114 1440 992 753 590 602 453 520 685 598 461 288 234 319 452 325 241 252 263 263 233 253 210 216 132 133 166 133 158 106 152 139 165 154 139 135 156 137 188 198
250 73 235 347 536 1060 1337 1469 1127 859 595 624 652 489 570 618 725 475 306 474 625 501 414 403 459 355 334 366 328 264 217 207 260 332 269 178 145 127 129 156 129 160 141 185 168 224 265
115 611 985 1080 1232 1460 1199 874 670 581 489 421 362 392 484 521 433 301 478 760 514 315 578 423 379 400 436 433 384 316 271 272 305 261 241 250 203 134 228 96 141 124 157 290 391 265 210
152 154 116 262 389 459 523 392 288 247 180 116 198 360 408 464 472 553 508 594 464 469 389 467 488 566 544 454 339 313 259 241 256 297 260 265 245 257 172 93 163 155 217 109 184 189 273
127 106 124 209 180 97 110 130 116 100 111 154 315 318 322 303 314 290 440 604 518 425 391 338 403 367 470 345 299 271 235 222 194 225 193 264 226 126 107 76 193 307 257 247 277 370 335
234 93 108 155 154 161 146 143 143 177 229 270 476 359 261 210 266 267 406 411 338 260 282 336 330 285 243 224 202 173 213 177 184 198 162 166 176 185 145 220 202 127 157 293 274 253 301
463 175 330 296 270 283 306 251 262 284 249 327 461 390 249 221 302 255 295 301 338 359 247 220 196 192 170 157 138 142 138 139 90 44 97 92 148 230 236 103 82 112 146 122 158 253 94
679 456 81 184 231 238 195 196 209 266 298 508 546 486 300 265 391 351 327 322 282 255 186 188 198 143 154 155 157 118 117 69 44 37 50 42 144 224 180 139 161 132 86 45 -86 -57 69
124 482 386 367 320 263 159 133 179 216 300 461 507 467 361 258 301 290 337 265 240 134 189 180 174 179 189 161 145 143 139 103 107 137 67 95 137 152 264 170 123 144 138 94 39 9 9
-7 52 252 176 246 288 225 184 111 173 217 383 478 477 479 308 215 247 258 177 209 263 217 125 187 165 140 124 143 165 138 167 148 132 168 173 146 135 81 43 58 82 81 92 68 105 95
54 12 31 94 117 59 106 154 137 159 222 340 379 416 408 264 231 241 201 196 209 214 199 189 149 108 122 180 194 171 220 177 160 148 207 236 211 187 145 81 94 113 86 60 67 -16 -33
33 44 50 25 59 82 43 57 104 149 266 335 347 335 284 229 272 231 244 202 173 189 142 127 130 170 177 138 153 150 125 217 195 157 193 193 206 208 145 123 145 169 135 68 33 -25 -13
9 18 19 38 44 22 66 58 53 103 215 263 328 349 354 308 255 155 169 123 140 114 140 152 148 154 86 150 158 118 104 73 60 45 110 135 156 163 145 116 189 98 123 97 91 22 94
16 7 18 17 24 35 51 58 57 43 115 229 277 327 323 320 203 191 161 134 125 118 167 160 103 63 130 115 124 122 105 81 56 77 94 145 221 194 174 145 141 102 173 218 160 95 181
9 22 14 19 24 44 46 49 63 77 133 205 255 291 294 258 186 165 163 152 172 175 165 124 70 84 119 148 156 126 113 101 91 117 72 128 113 197 203 177 194 233 142 26 46 108 177
6 10 19 27 38 46 55 58 61 54 100 227 237 307 288 249 193 202 211 150 171 179 164 146 122 135 108 128 150 134 109 105 98 111 105 157 175 139 133 186 136 181 93 -29 39 72 145
13 37 37 33 43 55 56 66 75 84 93 167 162 76 162 261 234 162 135 183 154 123 146 124 203 151 176 178 151 104 111 75 96 94 121 148 181 176 173 175 110 59 67 8 14 42 66
15 32 45 28 31 40 59 65 98 110 111 170 205 168 151 155 121 147 123 95 108 135 106 109 114 97 95 138 130 112 118 104 105 148 125 138 178 145 176 148 94 115 89 -9 -63 28 40

GFSGBSN_con_3kmhel_183.txt.gz
Helicity
207 200 193 180 180 182 174 166 169 156 148 153 157 153 145 118 107 96 84 93 113 110 95 75 69 76 77 157 91 150 160 152 120 107 103 96 98 138 164 162 171 143 106 100 111 77 78
195 218 220 216 201 192 180 175 182 175 161 157 165 146 145 128 115 105 108 117 129 124 119 102 104 90 119 157 97 132 156 136 138 119 130 126 145 131 146 153 131 148 108 78 63 35 54
159 251 244 245 231 217 199 194 191 186 184 181 175 164 141 157 134 131 134 149 134 136 132 134 121 118 159 84 143 142 118 105 93 96 94 131 144 149 191 140 147 101 64 47 16 28 65
404 213 285 251 246 243 225 215 215 207 194 198 193 194 186 193 177 159 156 159 157 154 159 146 132 107 143 84 113 82 85 65 75 86 100 140 220 229 219 168 141 93 66 81 83 25 -9
259 500 613 216 256 236 247 238 231 228 205 211 224 226 230 229 205 201 204 190 180 176 200 139 137 110 61 94 77 113 90 97 113 133 120 137 152 180 184 170 142 144 138 96 47 16 40
19 304 440 504 265 282 240 250 248 241 234 235 238 263 265 251 246 259 260 237 227 197 196 153 177 120 83 125 109 113 79 78 85 105 152 145 193 230 237 237 202 146 120 88 71 75 67
-143 -126 261 379 197 297 279 282 255 258 260 257 262 275 292 284 305 328 400 331 281 235 247 180 122 93 113 99 106 102 91 112 117 108 122 136 184 196 153 172 123 129 129 100 103 81 49
-129 -100 -79 219 465 276 306 301 308 300 277 285 307 331 350 335 349 313 402 375 301 234 111 54 129 157 170 203 212 159 156 138 146 157 165 150 134 86 115 119 109 106 93 102 77 28 41
154 64 -104 26 428 440 240 335 330 337 347 312 369 389 445 453 452 479 397 362 266 215 157 113 168 177 157 172 172 133 190 185 177 180 165 129 172 189 115 121 109 93 88 61 61 71 90
50 73 22 -62 146 394 461 294 366 363 390 401 449 485 668 707 703 594 467 325 269 250 234 126 112 164 239 255 232 195 187 266 266 158 205 133 127 119 141 176 146 114 84 44 29 70 79
-3 84 137 22 54 226 396 305 389 440 455 476 574 612 741 843 781 690 527 411 310 480 247 162 270 174 187 228 294 271 197 277 273 267 306 260 201 184 149 102 108 160 135 124 118 118 120
78 75 84 56 29 99 206 197 347 457 563 624 738 799 707 873 771 673 580 455 677 500 264 240 262 255 264 277 307 320 298 233 252 262 248 192 195 182 148 139 102 116 106 132 102 107 289
116 20 46 28 112 71 170 275 396 465 664 822 1006 854 897 940 949 598 592 752 762 593 324 279 365 284 305 362 398 353 335 409 387 377 371 306 230 162 191 202 162 183 210 291 284 369 381
138 59 78 79 84 112 134 170 381 576 950 1207 1400 1064 1013 1091 813 713 1007 998 678 461 503 401 321 398 470 517 474 407 418 432 458 419 408 406 435 322 286 265 290 242 166 308 421 407 282
226 242 -4 113 104 183 208 352 698 1073 1224 1366 1378 1217 1274 949 737 751 1054 930 613 514 525 595 620 532 599 567 513 557 573 532 466 390 412 425 408 265 257 162 117 194 162 239 229 150 248
163 379 35 497 212 374 617 960 1167 1333 1365 1304 1736 1563 1304 643 632 956 1046 739 741 633 575 568 627 603 636 621 641 623 545 425 383 213 204 260 402 234 239 108 138 141 132 219 235 367 412
286 484 78 213 878 939 1014 1279 1421 1378 1466 1536 1957 1824 689 472 439 558 677 746 595 560 583 582 569 661 626 659 625 594 474 323 216 212 192 175 226 208 111 112 144 136 178 226 281 261 461
290 529 79 71 136 362 769 1039 1067 1060 692 712 1312 1492 292 300 576 618 671 492 499 509 560 606 545 440 410 363 322 266 215 204 84 96 137 153 174 204 132 126 74 59 182 220 370 454 367
205 666 512 61 86 53 110 150 162 172 266 608 757 747 325 206 555 591 522 477 490 428 373 350 288 218 201 188 219 195 200 135 98 84 90 69 176 222 191 158 124 143 132 180 178 142 191
89 219 563 446 104 102 73 58 93 268 270 681 712 627 414 292 266 355 396 396 377 233 183 185 198 213 237 229 226 162 154 101 33 42 86 78 171 206 223 211 183 185 142 140 125 163 140
27 98 266 499 402 307 132 176 262 249 285 488 653 580 423 283 309 289 376 328 299 258 227 198 235 177 190 217 190 159 132 146 99 85 126 131 191 171 137 135 100 141 143 81 80 96 177
28 12 111 315 309 256 69 180 309 285 355 414 477 487 429 400 356 339 308 270 215 262 204 186 163 105 156 176 137 106 108 134 148 183 190 245 271 251 266 132 161 127 77 51 62 76 82
53 55 10 98 282 213 296 231 194 280 279 301 361 440 415 307 354 365 284 284 219 227 216 109 135 185 158 92 118 137 157 170 167 169 185 223 252 287 243 162 170 139 64 76 97 82 120
21 33 71 15 66 132 98 148 129 159 165 240 338 373 340 320 246 240 197 222 158 164 193 164 158 158 118 131 178 194 197 167 159 146 135 179 205 175 165 159 162 93 125 88 118 127 156
12 13 25 65 29 44 84 88 85 109 138 233 277 251 241 235 210 228 160 211 201 211 244 180 123 109 99 176 207 232 240 180 94 85 57 91 135 155 181 159 119 88 85 98 128 98 110
16 14 8 17 43 49 27 59 68 91 118 235 339 267 271 280 182 177 228 173 224 223 205 182 173 101 185 217 239 257 250 192 158 159 115 54 65 131 173 162 166 124 71 63 55 78 111
14 9 10 20 22 33 51 50 55 56 104 201 239 317 257 239 258 210 193 133 156 198 178 187 219 201 144 232 261 236 198 177 186 162 153 181 170 105 107 140 189 89 68 81 86 88 47
-3 8 13 14 30 30 32 44 51 85 118 188 223 261 240 202 199 184 161 160 199 209 222 224 300 234 206 215 208 178 149 146 168 135 129 120 159 227 248 242 196 54 128 101 77 79 60
3 6 8 29 31 45 45 49 55 60 107 166 232 170 243 258 193 171 170 165 132 114 168 138 165 197 137 175 136 129 135 117 109 123 98 152 223 215 181 178 119 123 141 69 79 71 50

GFSGBSN_con_3kmhel_186.txt.gz
Helicity
182 179 156 156 176 189 182 166 158 148 165 159 151 164 148 145 133 115 103 91 86 74 59 59 66 75 46 35 48 97 88 86 81 104 98 104 113 127 106 159 161 106 81 94 90 41 30
163 256 242 103 189 185 189 191 191 187 176 178 174 164 170 164 139 114 108 105 94 88 73 71 74 75 60 81 129 108 139 104 94 87 94 94 110 119 140 119 103 156 92 48 26 13 12
29 30 211 308 136 195 194 185 219 219 205 200 193 186 181 170 153 139 142 129 114 107 103 96 96 83 72 81 129 113 134 143 128 149 141 126 139 93 170 106 104 89 57 43 19 17 45
40 8 -21 268 219 173 195 203 198 230 237 219 200 200 208 179 163 181 170 164 138 130 136 109 96 77 110 101 141 128 104 107 71 62 70 94 107 95 98 104 78 55 48 37 110 35 24
66 38 -74 18 307 454 171 192 233 219 236 221 230 232 218 214 190 227 208 200 178 156 162 123 93 114 88 144 137 149 131 134 105 104 122 125 122 119 104 80 67 69 59 72 41 18 28
132 38 12 -116 37 262 406 126 228 221 228 239 253 254 247 239 232 260 281 240 220 166 186 155 187 152 140 186 142 99 59 78 137 129 116 158 140 117 100 107 86 83 83 49 46 51 24
173 237 36 -55 -144 -49 243 306 177 276 241 270 246 255 271 286 315 359 450 465 363 285 252 284 170 192 197 157 90 99 126 105 100 82 95 88 101 106 74 76 63 72 80 72 62 64 38
99 164 119 63 -64 -209 68 224 213 315 262 221 223 284 295 307 398 380 383 425 260 306 144 68 224 257 272 262 146 149 134 132 114 72 81 126 78 68 90 83 69 76 81 82 78 73 63
151 185 156 92 87 -34 -121 91 242 179 338 298 252 261 295 355 409 417 376 256 301 308 290 227 169 210 200 205 193 156 164 161 119 88 109 77 132 181 99 87 88 76 102 118 102 116 94
126 128 266 124 73 236 -26 20 129 270 303 353 332 323 332 436 494 457 367 315 360 450 399 350 292 172 239 251 174 152 151 172 191 139 108 105 100 136 117 111 90 74 112 106 124 154 173
89 106 127 238 113 114 94 -24 128 246 191 365 403 376 478 559 561 573 558 517 674 516 309 143 307 252 214 245 318 220 230 282 187 179 247 192 131 113 114 90 101 113 200 189 177 155 163
58 115 107 98 107 99 77 -88 -21 168 218 334 426 478 579 467 551 438 638 913 795 487 274 231 228 221 266 231 289 328 305 290 274 271 220 227 291 229 207 209 176 256 186 165 145 148 282
56 72 95 75 75 54 51 54 -13 36 170 221 422 572 640 664 658 631 851 970 810 554 333 279 311 229 151 264 271 232 256 263 259 292 242 220 166 238 212 246 203 207 238 307 311 387 343
64 55 118 82 51 90 56 54 84 2 145 249 487 750 586 883 691 892 991 866 540 428 538 322 206 227 262 286 323 286 291 355 345 359 376 292 371 318 333 331 364 271 302 413 460 376 303
39 99 117 70 69 75 61 21 88 85 126 121 538 755 829 898 882 1045 1144 657 548 565 459 550 392 319 460 382 454 432 319 340 498 448 417 456 554 360 329 288 284 329 277 324 311 272 318
20 193 112 188 64 46 51 -76 87 136 123 179 944 1124 1063 948 903 1100 849 562 664 526 482 454 668 479 556 470 547 473 490 463 492 433 402 463 561 349 303 222 187 222 315 277 261 411 387
65 211 262 235 77 96 10 23 151 201 259 739 1152 1160 1129 756 1025 1272 916 779 771 683 641 644 817 861 771 686 682 627 538 468 435 438 352 362 394 303 280 191 247 165 155 200 288 297 374
54 189 330 289 154 520 79 175 289 339 646 835 991 868 791 799 1585 1308 1078 957 860 785 729 983 957 970 956 894 863 832 764 750 378 353 489 307 310 313 190 239 143 127 184 256 279 300 381
46 163 251 408 281 278 165 321 323 517 786 1025 1192 1240 557 651 1456 1271 1248 1116 1041 1052 983 1020 1009 799 706 725 647 571 484 369 217 247 221 157 213 232 122 96 111 162 151 205 256 285 286
25 135 181 530 83 298 577 579 643 783 775 1086 1464 1412 957 641 686 1188 1320 1182 1228 657 733 623 612 495 628 578 470 387 389 285 171 157 150 116 141 151 184 302 208 166 149 167 225 340 161
24 78 138 828 16 95 227 868 1302 1234 1070 951 1218 1291 1204 1033 852 909 913 1041 926 712 465 412 435 375 400 475 321 242 179 215 155 122 128 143 124 81 74 97 124 129 178 202 131 106 162
6 38 85 667 57 17 98 182 244 558 969 1314 1389 1280 1194 1180 746 816 610 561 528 607 557 508 372 167 194 180 202 150 176 151 143 105 112 126 146 147 129 112 123 159 193 87 64 66 66
23 24 63 279 423 115 79 225 287 412 408 561 654 768 740 502 441 459 529 508 390 344 312 161 112 177 183 204 184 127 137 108 120 99 79 148 156 170 139 216 229 314 145 57 53 51 81
37 11 28 79 273 271 155 234 167 150 200 314 535 629 531 581 418 388 244 239 218 251 256 151 93 171 176 127 141 144 138 120 89 78 79 133 118 208 252 235 284 162 168 137 83 68 78
24 22 14 6 59 172 202 122 130 89 136 229 323 457 421 479 309 256 270 292 258 182 136 146 177 128 70 107 176 175 167 123 84 102 108 128 176 254 256 201 122 91 89 68 82 77 49
10 21 14 33 -6 52 98 99 89 82 141 227 266 273 330 356 265 222 256 157 177 235 241 272 194 84 120 175 190 193 186 166 168 205 95 115 116 171 218 239 191 159 216 118 117 101 118
5 12 25 18 40 12 47 53 47 58 112 160 230 194 164 209 170 148 212 191 174 182 232 192 214 176 144 220 232 223 250 253 206 212 231 173 148 95 108 151 107 125 65 135 144 101 126
13 9 15 26 25 24 29 49 47 70 115 147 253 217 145 196 199 128 163 150 157 127 150 166 207 203 142 188 218 260 248 255 259 210 191 163 178 176 135 117 102 96 77 108 61 108 58
7 13 14 24 32 24 50 68 93 65 91 143 215 195 203 206 211 180 150 134 108 90 130 51 147 144 186 212 251 225 271 219 218 241 112 172 152 126 158 196 141 133 103 77 65 58 39

GFSGBSN_con_3kmhel_189.txt.gz
Helicity
141 193 120 92 155 166 142 143 143 144 136 131 130 127 128 115 113 119 104 98 84 67 64 53 55 78 74 43 52 53 46 20 18 27 56 84 105 101 93 99 108 104 76 61 65 78 44
-57 54 145 106 154 199 137 148 153 175 163 161 147 141 139 134 134 125 122 97 93 81 72 56 60 91 66 73 120 101 32 35 27 52 75 112 121 108 157 121 140 97 150 66 37 14 24
126 3 61 70 83 73 185 182 146 193 199 186 168 164 154 163 151 143 132 123 103 87 79 63 69 64 69 53 86 76 70 58 114 131 147 184 192 171 191 151 135 133 106 57 20 18 34
260 162 101 43 -9 -9 125 192 98 166 182 207 185 190 189 177 182 164 170 161 111 96 84 86 98 82 83 61 55 65 60 64 116 132 154 184 147 163 160 109 117 87 51 43 6 118 48
133 168 188 201 57 -44 -39 111 173 105 170 178 212 217 216 214 209 223 226 182 144 119 130 102 95 66 65 116 82 60 86 112 129 169 146 150 111 82 96 64 80 77 61 34 69 56 49
104 119 128 164 180 103 39 -60 167 196 206 213 216 252 244 213 236 298 293 236 221 185 158 139 163 129 125 58 104 89 83 82 124 107 143 100 126 110 79 79 94 29 27 45 49 53 53
64 72 108 130 136 85 -4 5 -11 182 169 221 203 221 243 261 302 408 492 432 308 218 206 246 117 155 204 161 136 91 147 126 125 68 102 100 113 109 91 53 35 72 91 55 33 31 16
52 76 55 74 164 131 67 41 12 -10 156 248 221 204 285 308 351 400 371 344 237 272 96 73 100 104 267 239 185 94 121 194 199 81 60 141 101 60 50 38 52 49 43 38 31 30 52
41 43 51 45 131 164 162 91 107 -69 78 154 123 216 293 332 403 410 328 180 167 131 214 143 2 89 200 233 228 166 145 112 177 74 72 84 96 118 76 82 80 73 48 49 63 107 86
60 41 42 88 70 165 140 143 79 1 -89 176 173 334 326 451 449 375 266 157 248 345 309 213 346 254 172 238 289 186 201 260 275 109 88 83 69 71 111 93 102 73 75 94 89 78 72
46 43 43 57 84 95 194 124 135 86 43 17 224 334 488 629 568 365 396 180 366 401 462 238 353 256 143 352 340 148 223 231 175 116 172 119 94 107 105 89 84 72 102 128 114 97 90
22 34 19 34 45 79 118 172 103 142 99 -89 23 198 502 438 493 436 362 430 527 514 438 364 357 439 451 295 269 415 221 252 173 161 122 110 119 153 109 120 199 192 227 151 124 120 139
15 32 21 21 50 61 117 79 90 93 173 -84 31 129 651 614 520 644 623 638 556 544 305 368 448 348 217 282 253 350 353 270 367 329 226 154 118 226 291 211 137 170 167 242 137 182 193
23 25 16 19 59 30 82 66 23 67 72 94 45 117 488 650 730 980 894 611 666 388 459 265 224 182 163 214 178 237 208 205 95 144 245 222 250 160 195 128 162 93 172 298 258 197 161
20 29 17 26 40 34 79 36 53 53 43 64 87 174 218 714 999 1014 847 655 679 636 324 481 181 51 219 275 311 234 156 127 118 218 311 221 339 435 313 220 252 276 310 291 463 398 406
35 34 12 39 47 89 80 89 38 66 67 85 194 203 252 690 1021 919 680 706 705 513 399 342 461 235 279 273 400 361 274 213 305 353 385 460 694 404 361 285 326 450 320 473 469 485 371
8 4 5 37 161 112 172 169 26 48 105 131 227 270 338 573 1047 873 720 740 771 623 653 456 381 353 234 301 364 290 308 505 634 557 425 497 579 479 436 401 311 450 454 447 457 386 443
-6 -27 3 87 214 118 226 196 78 104 183 182 251 320 371 738 824 820 685 778 822 770 917 892 706 538 333 382 481 316 444 587 529 493 605 646 649 624 392 459 503 612 425 450 454 367 380
-15 -11 4 162 202 284 152 82 116 163 227 276 324 444 270 686 827 820 879 878 875 1003 924 1013 968 799 697 576 807 867 963 785 676 658 891 705 726 677 680 489 299 295 277 258 352 377 335
-22 -3 16 147 244 133 153 201 -94 -95 113 261 561 565 730 581 801 841 916 912 969 752 1044 1092 959 895 1119 1234 1133 1094 1186 1004 949 862 681 532 484 450 351 401 266 231 131 144 227 345 223
-17 12 62 164 438 54 141 1165 136 280 339 631 693 554 837 780 676 674 803 928 945 1028 862 894 1043 819 973 1317 1151 962 858 776 561 497 402 362 323 245 250 201 162 120 91 84 98 117 161
-13 16 64 308 137 7 -26 309 826 435 662 898 647 659 786 600 609 750 830 829 821 1127 1244 1089 945 813 738 809 766 757 578 528 501 335 263 243 311 246 236 115 94 88 95 124 145 134 128
-14 2 70 296 118 23 -41 58 301 950 1112 993 683 698 971 698 704 879 923 968 882 1071 1251 831 850 877 710 551 398 339 319 317 223 161 178 170 194 185 194 50 66 136 78 72 89 90 101
-15 -38 26 73 200 27 -137 -23 73 280 418 885 779 836 918 903 862 1046 875 979 996 945 939 506 444 577 414 321 376 321 238 234 131 102 60 101 87 108 160 152 179 91 201 143 106 68 63
5 -12 -11 4 93 28 -37 -14 55 186 325 617 703 1011 1161 1224 1219 986 1075 969 729 417 371 407 220 248 196 249 348 380 295 248 160 88 86 80 81 144 178 96 97 130 64 72 78 85 72
7 2 -10 -9 19 16 16 38 37 53 93 370 645 691 1001 1221 776 531 671 489 457 438 425 351 203 97 99 234 278 290 255 187 163 136 91 109 76 141 170 166 191 205 262 261 262 107 30
6 -3 8 -7 -14 12 23 54 93 98 140 143 295 244 446 731 334 332 401 382 303 332 360 225 208 180 91 154 207 173 187 138 148 132 148 140 150 132 131 162 175 130 111 114 111 91 68
-0 -4 7 10 4 25 4 30 59 99 122 119 227 231 158 442 378 187 180 201 177 214 268 197 258 140 119 127 168 231 164 146 135 101 112 165 182 204 165 183 180 129 104 73 48 62 42
-9 1 7 20 15 29 39 31 48 50 94 123 202 168 227 311 301 211 289 243 152 40 135 61 117 101 141 147 167 176 172 183 139 172 128 146 148 145 199 175 118 79 46 28 45 32 32

GFSGBSN_con_3kmhel_195.txt.gz
Helicity
131 145 134 98 94 208 10 22 54 132 170 115 138 125 116 102 109 116 110 97 82 63 55 53 64 73 81 52 78 31 43 50 70 97 94 97 103 104 93 70 78 49 37 67 83 112 109
106 110 129 141 96 88 107 -18 61 127 139 147 168 139 120 125 116 128 125 112 100 79 60 62 77 91 58 62 46 69 22 42 54 77 92 84 78 71 77 49 74 84 67 87 103 116 157
85 83 92 108 110 105 90 133 87 121 132 195 206 161 139 138 139 143 138 129 111 96 81 77 79 87 83 67 65 164 83 43 53 53 101 77 98 79 112 86 63 101 135 116 141 84 84
89 69 67 98 104 106 99 104 128 105 92 174 161 207 204 147 159 158 166 149 126 100 96 100 102 110 39 33 57 60 46 112 92 84 95 104 138 146 147 161 157 142 146 188 171 63 53
52 50 39 42 79 87 84 89 127 138 132 71 103 128 143 253 166 188 189 178 156 120 133 105 150 112 -11 50 78 38 68 60 51 76 81 110 143 126 177 160 159 160 223 123 36 31 50
71 64 49 46 49 55 64 87 119 112 187 200 39 55 83 184 282 200 239 225 214 204 178 137 208 160 189 69 104 75 82 62 115 96 106 116 129 160 156 204 257 203 120 88 161 148 13
63 64 60 69 51 41 40 68 110 129 102 152 186 5 54 104 248 262 399 476 347 297 284 367 256 371 276 28 234 100 147 135 152 194 159 156 205 234 85 179 169 126 106 43 -11 -24 14
52 55 64 46 58 60 48 56 94 129 165 141 160 47 -107 -30 107 304 439 507 388 296 219 205 247 117 151 199 229 133 159 173 255 246 157 217 143 111 99 104 97 107 120 114 102 33 62
38 48 54 59 40 48 52 83 69 97 131 159 141 122 8 -98 -85 458 342 307 308 361 304 103 84 164 172 166 216 186 118 175 166 160 173 192 151 62 45 58 77 107 125 135 107 89 38
26 37 66 63 46 29 29 48 61 86 113 151 139 122 47 -27 -4 440 328 256 292 182 302 174 178 154 210 177 178 173 126 175 266 158 141 120 87 115 95 109 98 158 146 136 95 79 73
22 18 19 31 35 33 28 19 35 57 84 108 155 171 61 -43 214 248 320 320 289 361 425 237 153 150 177 319 332 216 209 154 217 262 203 303 155 107 92 174 133 180 146 175 104 100 86
19 17 10 16 21 19 25 25 32 44 66 91 117 54 84 84 93 66 264 332 479 376 476 616 402 268 288 277 296 102 258 255 219 190 131 111 185 236 155 196 251 240 224 241 105 124 26
0 3 5 17 16 15 14 17 20 30 45 62 99 75 -3 54 271 224 281 403 481 569 391 388 576 330 390 420 305 473 193 269 388 405 305 302 247 255 386 390 347 334 275 237 160 199 151
1 2 12 12 10 9 7 6 9 15 34 37 58 102 -6 -17 137 218 364 351 520 547 377 281 319 241 387 475 255 353 432 313 246 388 360 436 317 348 410 323 375 397 356 405 279 239 155
18 10 4 -1 -1 4 3 5 5 5 14 19 52 42 29 -47 112 131 286 320 527 331 275 602 130 310 326 390 414 379 315 401 422 488 650 457 316 325 329 321 234 339 241 248 268 240 198
13 8 1 -1 -3 -9 2 0 8 3 3 20 32 23 42 -2 66 136 351 243 442 299 303 315 340 342 451 311 391 326 346 295 343 313 477 499 380 244 164 99 122 350 300 247 340 276 266
8 0 -7 -5 -2 -2 -9 -9 -21 -5 12 33 71 48 -108 -48 63 153 239 445 488 312 463 143 232 283 246 219 240 327 500 413 181 360 390 517 495 279 211 275 324 456 261 410 292 399 388
1 -3 -6 -6 -7 -12 -5 -18 -1 10 28 51 113 85 -121 60 140 136 172 556 537 473 397 329 347 299 275 197 142 237 278 320 184 391 428 360 324 322 335 452 556 327 306 396 465 589 609
5 8 0 1 -5 -2 9 15 21 26 35 119 144 105 -11 44 185 203 245 141 346 452 397 449 344 336 269 243 252 158 254 315 444 203 356 517 436 438 488 462 503 624 571 610 684 651 564
7 3 -2 -5 -8 -17 -11 -9 27 58 27 146 214 124 106 73 94 113 242 317 366 391 412 514 392 277 267 372 443 320 163 440 387 380 317 545 599 589 583 549 749 804 786 795 809 835 862
16 5 -10 -11 -29 5 4 27 20 63 62 138 193 206 247 185 128 127 127 132 342 549 579 352 310 365 271 311 422 376 327 474 537 549 622 698 692 644 657 670 626 571 694 814 869 998 795
9 2 -13 -4 2 10 14 36 14 38 71 166 278 307 300 226 117 182 272 273 212 395 596 482 388 300 304 356 335 474 557 667 709 775 764 849 955 961 929 844 839 846 769 886 684 601 500
8 0 -2 -16 -7 -6 4 11 18 44 69 77 90 216 265 203 195 158 199 355 206 267 445 368 411 385 429 428 501 448 653 837 664 941 1044 1017 1139 1059 975 857 853 950 809 576 453 345 308
8 2 8 1 -15 -10 -4 13 67 10 12 -34 61 204 349 203 268 237 176 298 228 180 331 346 339 353 536 822 927 832 810 874 846 934 864 1101 1127 1110 1074 1069 929 655 254 205 238 194 150
1 7 21 10 -15 2 -10 -2 46 25 118 -16 73 197 359 432 206 207 232 201 222 225 393 319 403 527 601 816 689 694 771 690 631 635 704 775 1136 1053 931 867 680 426 373 239 258 144 83
7 7 14 3 -2 18 -11 9 53 111 44 157 353 199 358 406 295 294 321 301 541 594 540 549 498 484 781 718 836 816 722 764 725 651 429 498 510 602 514 615 633 393 300 260 191 249 125
-13 -2 4 15 6 24 8 20 95 88 189 308 664 429 465 465 280 283 507 584 499 654 773 566 697 737 766 770 759 676 741 810 751 946 920 843 725 719 693 683 522 313 311 283 340 173 223
-29 -18 7 14 12 28 24 49 32 106 135 135 554 489 519 568 394 378 390 633 555 562 646 600 747 767 688 649 660 666 735 867 914 864 921 954 914 814 720 603 449 162 193 193 141 232 248
-18 -20 -5 8 15 24 32 63 51 72 157 266 356 423 490 599 651 565 546 456 492 599 757 626 609 898 729 716 623 662 622 737 764 867 682 715 608 448 293 228 78 219 211 197 219 208 188

GFSGBSN_con_3kmhel_201.txt.gz
Helicity
89 92 83 91 109 109 120 144 147 144 184 119 127 111 159 180 145 136 140 114 124 107 113 103 96 119 127 130 128 15 41 143 223 148 108 111 132 142 135 120 156 135 60 53 33 64 41
97 73 68 85 91 83 92 106 134 162 166 186 204 175 238 175 224 156 155 152 118 128 120 113 113 124 186 117 77 58 6 -4 107 153 162 150 167 153 137 123 146 169 128 84 58 44 22
78 77 74 76 84 93 100 88 106 128 143 171 182 231 202 144 128 203 149 176 160 132 136 130 123 161 189 129 117 126 154 113 104 125 175 173 178 186 186 148 153 133 133 109 70 60 87
69 58 62 57 66 74 86 87 74 99 118 134 169 180 226 136 122 57 242 184 180 163 157 154 142 193 129 108 71 64 91 212 141 114 102 158 174 187 180 201 249 224 180 141 96 85 69
59 32 37 50 69 75 73 80 77 61 81 116 135 164 183 234 116 81 126 110 205 167 216 211 214 225 97 54 165 105 136 109 133 144 135 165 185 174 191 189 238 212 199 192 146 67 54
32 37 46 47 55 61 55 73 51 49 55 69 127 151 176 197 247 193 165 212 97 203 320 276 260 243 250 169 180 150 162 149 162 143 177 186 244 218 276 302 264 238 307 217 159 107 154
37 44 57 58 62 49 50 53 66 48 39 47 77 144 170 208 256 219 218 222 148 272 403 694 622 581 486 10 84 94 222 209 193 183 238 266 315 303 296 210 241 206 194 188 138 124 144
46 38 61 68 69 62 54 50 55 73 74 70 53 101 151 177 228 280 166 291 311 330 336 248 317 93 415 424 271 242 169 428 374 241 282 324 207 264 246 175 176 179 220 211 141 75 121
56 51 60 55 57 54 60 57 69 83 77 80 70 51 103 146 174 167 231 227 126 346 278 249 296 289 288 340 404 212 206 327 352 385 295 326 338 251 247 212 219 207 181 158 143 158 164
57 47 56 41 46 42 49 52 67 85 98 93 82 52 50 96 165 118 274 133 116 320 206 83 216 208 297 471 313 224 154 268 354 227 320 261 179 197 230 203 254 182 154 143 142 189 210
37 35 53 45 43 40 41 35 28 38 73 77 84 67 59 37 214 228 174 64 207 329 136 73 134 223 204 446 419 336 171 231 281 348 424 267 228 340 245 212 237 256 194 138 133 179 224
16 23 35 36 30 24 24 23 18 21 31 51 71 81 74 71 91 74 151 110 252 246 46 195 214 284 323 266 221 422 375 296 260 232 155 202 180 175 274 256 182 213 247 250 236 255 278
9 14 22 27 32 21 18 18 19 19 17 30 54 66 83 69 78 87 -48 196 259 308 237 246 244 151 267 428 346 339 399 400 475 429 250 195 217 255 198 175 204 183 277 373 359 396 370
3 2 8 13 19 27 21 18 16 20 22 28 37 37 60 73 78 88 -72 46 277 159 288 250 192 38 126 295 305 353 371 352 323 310 240 366 330 209 332 345 413 335 399 588 472 416 279
3 6 10 11 16 16 13 16 17 13 17 25 34 47 28 36 67 78 -59 -18 107 372 280 205 137 52 78 128 214 402 327 349 385 358 383 281 252 260 351 462 365 381 374 315 418 268 230
1 2 4 9 14 18 17 15 19 16 14 11 69 46 23 35 51 41 17 -185 1 176 238 295 204 117 49 123 253 270 400 285 297 348 447 479 286 319 237 190 283 323 429 437 405 361 290
18 18 15 10 10 14 10 7 3 2 11 16 73 59 -14 25 56 78 7 -159 -175 -86 358 237 381 283 158 175 191 262 278 346 276 286 357 486 385 319 326 401 300 408 431 428 399 524 478
-6 -7 1 4 9 12 13 16 9 6 5 29 96 75 43 80 54 85 25 -177 -84 -288 -41 333 227 274 228 146 150 193 163 216 189 331 336 311 351 349 183 322 288 283 392 522 590 670 525
-11 -18 -10 3 10 11 13 14 14 12 18 125 113 113 119 111 82 60 63 -148 -220 -112 24 29 300 211 313 212 193 114 135 117 253 141 299 433 583 537 552 500 505 474 325 341 515 521 349
-1 4 8 6 15 24 28 20 13 9 15 162 168 91 149 163 75 134 100 24 -241 -107 -7 114 288 350 483 235 278 146 157 233 220 143 176 303 454 396 469 486 749 608 557 384 428 442 440
5 6 9 8 23 25 20 16 8 13 52 138 153 147 179 117 84 13 95 61 -191 -208 -140 -191 -11 394 251 385 247 302 218 141 250 299 224 287 218 266 190 259 401 295 393 436 466 461 528
5 9 15 17 16 19 13 5 7 25 51 105 126 157 208 212 166 51 61 128 45 -64 -9 -38 -10 161 292 236 305 393 202 123 125 247 311 391 335 143 166 256 282 351 302 221 325 368 368
7 10 12 12 9 11 7 -5 -15 -16 50 108 125 190 230 126 175 184 155 94 162 63 69 62 169 106 175 178 225 234 214 322 290 257 324 276 294 354 200 360 334 286 232 336 305 257 359
13 4 4 8 8 9 2 -5 -27 -33 65 80 196 258 218 73 193 263 170 140 116 171 72 -34 108 143 103 140 265 371 415 377 258 332 333 325 261 320 281 448 363 186 243 229 286 251 316
8 4 13 20 21 -9 -14 -15 -33 -24 -12 5 227 258 293 75 164 142 168 150 132 92 92 119 45 122 178 224 319 278 347 354 342 277 163 203 286 447 368 384 394 252 341 420 463 303 414
8 19 15 -3 1 -15 -6 -22 9 18 27 66 132 325 231 233 114 162 120 188 181 137 117 168 143 148 157 361 497 407 375 293 336 350 341 216 237 402 326 354 258 162 194 277 420 202 442
5 8 13 12 -4 0 6 -14 -16 11 19 101 109 357 348 20 180 200 219 117 147 205 115 125 161 211 146 272 418 357 323 361 362 388 406 350 214 171 240 191 156 178 222 371 373 277 254
10 -3 -3 -13 -13 -12 -14 -11 3 27 45 -12 -59 174 212 238 197 143 33 122 150 137 134 185 165 256 283 272 238 179 188 363 377 322 335 350 327 320 367 277 155 168 209 353 345 352 288
-9 -7 -8 -10 -2 -7 -18 -2 21 28 30 -8 75 169 280 303 118 199 -81 93 94 161 132 177 197 284 283 425 254 266 346 344 302 291 426 390 370 359 260 268 361 292 367 351 268 276 334

GFSGBSN_con_3kmhel_207.txt.gz
Helicity
80 97 137 111 127 111 122 132 157 170 180 182 201 212 223 206 171 157 149 135 168 96 87 82 85 90 130 125 127 43 30 47 117 159 132 160 178 179 153 111 125 122 68 63 45 76 80
73 81 126 155 129 114 65 91 127 144 150 162 177 198 200 206 224 168 148 120 175 145 112 89 99 130 167 112 100 97 65 -30 19 99 180 149 152 135 165 145 126 127 77 59 70 71 72
60 90 100 133 133 116 94 79 88 133 150 152 147 162 175 193 213 213 173 138 129 166 148 145 138 192 163 126 113 97 155 64 79 108 115 118 127 168 167 176 129 150 88 72 54 55 62
65 54 75 104 127 113 91 65 67 74 108 144 159 152 153 157 169 192 203 185 166 174 170 137 131 189 154 143 86 108 116 108 125 86 98 115 137 157 184 203 209 162 145 99 53 49 77
28 31 36 46 81 105 78 44 58 70 80 83 91 116 147 155 132 140 191 217 174 182 155 149 167 220 124 122 110 104 106 98 85 121 125 158 168 159 176 171 190 208 194 130 69 48 109
33 26 29 27 65 53 30 38 41 44 55 82 67 67 86 106 124 145 177 197 158 179 212 146 193 222 222 125 103 69 103 120 132 129 155 184 208 191 224 219 247 264 213 179 125 101 95
24 18 30 44 44 56 36 49 49 39 36 45 60 47 47 72 83 112 143 192 192 246 262 448 271 448 327 130 54 125 173 131 153 179 203 245 263 220 193 198 173 173 77 100 132 90 83
26 11 2 34 44 61 72 60 66 69 58 33 40 33 40 51 71 85 79 191 244 241 234 170 214 125 222 281 195 110 79 239 290 235 273 318 219 191 196 197 156 128 108 118 137 104 104
24 22 10 26 50 49 45 49 66 68 67 72 49 46 43 42 51 56 80 109 117 153 217 220 157 148 166 190 190 213 67 112 191 253 289 343 211 220 210 232 209 167 157 147 161 177 125
24 17 7 8 27 36 43 45 34 45 46 61 66 57 50 43 59 47 78 89 142 90 276 212 251 242 311 242 233 184 100 149 177 126 228 267 148 217 159 166 208 153 174 175 142 144 109
13 -8 -12 2 17 34 26 32 39 41 51 60 62 49 57 31 80 97 91 50 116 131 339 168 178 211 188 377 340 167 277 175 187 290 299 213 195 208 267 145 156 156 150 159 122 114 103
-9 -1 14 15 21 24 26 27 29 34 57 49 50 49 52 90 87 68 71 65 87 312 347 247 199 267 407 260 238 226 190 289 287 321 241 128 179 129 173 212 225 189 197 140 168 160 188
7 9 13 19 24 27 22 23 29 23 33 32 34 39 55 87 69 68 70 122 357 352 424 394 315 194 189 293 247 282 323 388 461 424 324 197 237 252 168 160 149 213 201 261 243 344 267
11 2 9 17 26 25 25 29 31 33 30 28 35 32 54 92 65 57 87 195 433 449 456 291 340 177 160 172 235 230 317 371 283 342 288 261 204 214 289 244 385 283 343 493 353 310 209
5 10 13 13 18 23 26 26 25 28 34 34 50 86 72 66 73 95 100 243 377 423 315 287 315 387 176 203 271 204 232 294 383 395 461 327 202 289 272 393 346 330 378 259 364 276 218
13 9 4 2 9 12 12 14 21 27 28 33 88 68 68 52 102 150 92 149 180 216 235 244 257 215 383 206 258 244 257 289 322 260 312 310 136 196 322 251 219 309 190 311 308 298 259
6 10 11 5 7 9 11 11 9 15 17 46 88 77 46 121 141 159 135 120 97 67 187 110 207 119 176 211 126 228 305 230 230 289 232 231 367 229 288 453 436 392 371 364 274 421 332
13 8 4 4 6 12 -7 -1 2 7 10 52 88 99 91 179 127 173 128 168 80 61 48 76 85 143 143 34 196 114 174 143 100 224 253 128 266 255 297 162 285 380 344 265 433 326 362
27 17 10 3 -1 3 0 2 5 9 13 95 100 108 126 202 123 119 127 94 81 58 45 37 -73 -103 134 326 115 136 218 140 206 82 244 216 331 297 161 305 370 220 264 307 327 442 323
29 26 26 9 6 3 4 3 -1 6 8 109 115 101 170 196 182 129 121 96 81 63 51 51 27 -54 -53 42 287 58 212 74 94 161 83 238 269 327 306 269 440 525 305 194 195 400 351
31 25 27 23 12 6 -1 -6 -1 -5 8 103 130 130 141 125 102 127 77 109 97 78 14 14 25 -24 -81 -245 19 -37 94 155 20 44 143 214 213 280 163 146 204 407 494 320 300 314 301
17 22 21 15 20 12 4 -1 -1 3 12 99 102 192 183 173 170 118 53 -20 44 46 70 71 19 13 -7 -153 -195 238 109 218 119 140 89 154 293 117 65 68 137 351 316 218 228 264 298
25 26 17 6 2 4 8 10 0 -7 39 97 113 176 161 130 163 98 135 132 136 137 74 61 95 -15 -15 -166 -96 -100 -54 -199 -27 162 235 185 302 242 108 149 171 182 156 282 267 232 277
25 29 21 22 23 20 13 8 1 -9 25 125 177 170 89 -36 24 73 87 85 121 156 108 76 6 3 45 22 -5 -24 -74 45 -45 126 281 168 198 359 149 82 178 155 156 224 244 210 211
15 9 15 16 10 6 8 10 4 1 -2 36 191 173 86 13 43 14 65 107 48 44 68 66 97 126 4 -1 -48 -320 -341 -178 -86 -31 89 197 220 351 282 211 193 162 260 280 355 71 204
27 37 30 27 24 22 19 5 -5 -18 -27 10 94 237 163 3 165 139 91 84 122 135 24 93 105 89 24 -2 -20 -259 -330 -252 -144 -17 51 114 181 258 183 205 183 107 139 108 118 114 100
7 7 14 11 9 12 12 8 -4 -17 -19 15 116 223 205 44 112 161 157 123 177 240 106 56 7 1 -14 16 -32 -51 -135 3 -61 48 3 194 268 268 304 356 282 203 177 114 159 79 12
-3 -11 -14 -4 1 4 8 14 6 -8 13 29 60 121 307 235 166 250 180 89 102 261 154 121 28 13 33 -1 17 -37 25 28 62 33 103 134 348 276 372 269 247 86 152 205 132 89 28
4 -17 -16 -10 -4 0 13 21 23 10 31 79 29 120 241 258 288 277 293 342 318 337 236 215 152 41 42 35 42 30 9 49 53 66 -3 146 140 66 144 137 211 77 150 181 140 141 81